"Pseudo-MPEC" for P11ZAvd

Created 2024 Oct 3 0:22:11 UT using Find_Orb

Click here for an explanation of pseudo-MPECs

 
 Astrometry: 
     P11ZAvd* C2024 09 29.47739002 38 19.400-31 55 34.57   ~9TDb 21.99wXNEOCPF51
     P11ZAvd  C2024 09 29.48717202 38 18.857-31 55 40.46   ~9TDb 22.31wXNEOCPF51
     P11ZAvd  C2024 09 29.49695502 38 18.287-31 55 46.54   ~9TDb 21.76wXNEOCPF51
     P11ZAvd  C2024 09 29.56645302 38 14.379-31 56 28.01   ~9TMM 22.05GVNEOCPF52
     P11ZAvd  C2024 09 29.56711302 38 14.314-31 56 28.78   ~9TMM 22.45GVNEOCPF52
     P11ZAvd  C2024 09 29.56909502 38 14.193-31 56 29.99   ~9TMM 21.64GVNEOCPF52
     P11ZAvd  C2024 09 29.56975602 38 14.158-31 56 30.71   ~9TMM 22.13GVNEOCPF52
     P11ZAvd  C2024 09 29.57041502 38 14.135-31 56 30.55   ~9TMM 21.96GVNEOCPF52
     P11ZAvd |C2024 10 01.31939002 36 37.410-32 13 24.40   ~A18M 22.2 GVNEOCP807
     P11ZAvd |C2024 10 01.32444002 36 37.090-32 13 27.50   ~A18M 22.1 GVNEOCP807
     P11ZAvd |C2024 10 01.33021002 36 36.740-32 13 30.40   ~A18M 22.3 GVNEOCP807
     P11ZAvd 3C2024 10 01.51749402 36 26.104-32 15 21.68   ~A1D7 22.06GVNEOCPT14
     P11ZAvd 3C2024 10 01.51847102 36 26.044-32 15 22.21   ~A1D7 22.01GVNEOCPT14
     P11ZAvd 3C2024 10 01.51945002 36 25.985-32 15 22.82   ~A1D7 21.97GVNEOCPT14

Station data:
(807) Cerro Tololo Observatory, La Serena  (S30.169133 W70.805900)  Chile.
   Observer R. Holmes. 0.61-m f/6.5 astrograph + CCD.
(F51) Pan-STARRS 1, Haleakala  (N20.707234 W156.255910)  US/Hawaii.
   Observers J. Bulger, T. Lowe, A. Schultz, M. Willman. Measurers K.
   Chambers, S. Chastel, T. de Boer, L. Denneau, J. Fairlamb, H. Flewelling,
   M. Huber, C.-C. Lin, E. Magnier, Y. Ramanjooloo, R. Wainscoat, R. Weryk.
   1.8-m Ritchey-Chrétien + CCD.
(F52) Pan-STARRS 2, Haleakala  (N20.707382 W156.255910)  US/Hawaii.
   Observers J. Bulger, T. Dukes, T. Lowe, A. Schultz, M. Willman. Measurers
   K. Chambers, S. Chastel, T. de Boer, L. Denneau, J. Fairlamb, H.
   Flewelling, M. Huber, C.-C. Lin, E. Magnier, Y. Ramanjooloo, R. Wainscoat,
   R. Weryk. 1.8-m Ritchey-Chrétien + CCD.
(T14) Mauna Kea-UH/Tholen NEO Follow-Up (CFHT)  (N19.825252 W155.468876)
   US/Hawaii.  Observer R. Weryk. 3.6-m Canada-France-Hawaii Telescope.

Orbital elements:  P11ZAvd
   Perihelion 2024 Mar 18.24522 +/- 265 TT =  5:53:06 (JD 2460387.74522)
Epoch 2024 Oct  1.0 TT = JDT 2460584.5   Earth MOID: 0.5313      AutoNEOCP
M  57.86066304 +/- 90               (J2000 ecliptic)
n   0.29407500 +/- 0.0423           Peri.  169.36323 +/- 53
a   2.23956658 +/- 0.215            Node   113.17498 +/- 11
e   0.3105064 +/- 0.102             Incl.   25.17341 +/- 1.9
P   3.35155                H 19.21  G  0.15   U 10.7  SR
q 1.54416671 +/- 0.115    Q 2.93496644 +/- 0.454
From 14 observations 2024 Sept. 29-Oct. 1; mean residual 0".47
Residuals in arcseconds: 
240929 F51  .18-  .12-    240929 F52  .09-  .02-    241001 807  .81+  1.1+    
240929 F51  .02-  .02-    240929 F52  .05-  .35-    241001 T14  .03-  .02-    
240929 F51  .21-  .13-    240929 F52  .13+  .21+    241001 T14  .04-  .01-    
240929 F52  .37+  .38+    241001 807  1.1+  1.1+    241001 T14  .03-  .08-    
240929 F52  .02+  .00     241001 807  .86+  .80+    

Ephemerides (geocentric):
Date (UTC) HH   RA             Dec           delta  r     elong  mag " sig PA
---- --------  ------------   ------------  ------ ------ -----  --- --------
2024 10 03 00  02 34 59.162   -32 28 32.64  1.2431 2.0676 134.0 22.3 11.8 129
2024 10 03 01  02 34 56.664   -32 28 54.19  1.2432 2.0678 134.0 22.3 12.3 128
2024 10 03 02  02 34 54.162   -32 29 15.70  1.2432 2.0679 134.0 22.3 12.8 126
2024 10 03 03  02 34 51.658   -32 29 37.17  1.2433 2.0681 134.0 22.3 13.3 125
2024 10 03 04  02 34 49.150   -32 29 58.58  1.2434 2.0683 134.1 22.3 13.8 124
2024 10 03 05  02 34 46.640   -32 30 19.95  1.2435 2.0684 134.1 22.3 14.3 124
2024 10 03 06  02 34 44.127   -32 30 41.28  1.2436 2.0686 134.1 22.3 14.8 123
2024 10 03 07  02 34 41.611   -32 31 02.55  1.2437 2.0687 134.1 22.3 15.3 122
2024 10 03 08  02 34 39.092   -32 31 23.79  1.2438 2.0689 134.1 22.3 15.9 122
2024 10 03 09  02 34 36.570   -32 31 44.97  1.2439 2.0690 134.1 22.3 16.4 121
2024 10 03 10  02 34 34.045   -32 32 06.11  1.2440 2.0692 134.1 22.3 17.0 121
2024 10 03 11  02 34 31.518   -32 32 27.20  1.2441 2.0693 134.1 22.3 17.5 120
2024 10 03 12  02 34 28.988   -32 32 48.25  1.2442 2.0695 134.1 22.3 18.1 120
2024 10 03 13  02 34 26.455   -32 33 09.24  1.2443 2.0697 134.1 22.3 18.7 119
2024 10 03 14  02 34 23.919   -32 33 30.19  1.2444 2.0698 134.2 22.3 19.3 119
2024 10 03 15  02 34 21.380   -32 33 51.10  1.2445 2.0700 134.2 22.3 19.9 119
2024 10 03 16  02 34 18.838   -32 34 11.96  1.2446 2.0701 134.2 22.3 20.5 119
2024 10 03 17  02 34 16.294   -32 34 32.77  1.2447 2.0703 134.2 22.3 21.1 118
2024 10 03 18  02 34 13.747   -32 34 53.53  1.2448 2.0704 134.2 22.3 21.7 118
2024 10 03 19  02 34 11.197   -32 35 14.25  1.2449 2.0706 134.2 22.3 22.3 118
2024 10 03 20  02 34 08.644   -32 35 34.92  1.2450 2.0708 134.2 22.3 23.0 118
2024 10 03 21  02 34 06.088   -32 35 55.54  1.2451 2.0709 134.2 22.3 23.6 117
2024 10 03 22  02 34 03.530   -32 36 16.12  1.2452 2.0711 134.2 22.3 24.3 117
2024 10 03 23  02 34 00.969   -32 36 36.64  1.2453 2.0712 134.2 22.3 24.9 117
2024 10 04 00  02 33 58.405   -32 36 57.13  1.2454 2.0714 134.3 22.3 25.6 117
2024 10 04 01  02 33 55.838   -32 37 17.56  1.2455 2.0715 134.3 22.3 26.3 117
2024 10 04 02  02 33 53.269   -32 37 37.95  1.2456 2.0717 134.3 22.3 27.0 117
2024 10 04 03  02 33 50.697   -32 37 58.28  1.2457 2.0718 134.3 22.3 27.7 116
2024 10 04 04  02 33 48.122   -32 38 18.58  1.2458 2.0720 134.3 22.3 28.4 116
2024 10 04 05  02 33 45.544   -32 38 38.82  1.2459 2.0722 134.3 22.3 29.1 116
2024 10 04 06  02 33 42.964   -32 38 59.02  1.2460 2.0723 134.3 22.3 29.8 116
2024 10 04 07  02 33 40.381   -32 39 19.16  1.2461 2.0725 134.3 22.3 30.6 116
2024 10 04 08  02 33 37.795   -32 39 39.27  1.2462 2.0726 134.3 22.3 31.3 116
2024 10 04 09  02 33 35.207   -32 39 59.32  1.2463 2.0728 134.3 22.3 32.0 116
2024 10 04 10  02 33 32.616   -32 40 19.33  1.2464 2.0729 134.3 22.3 32.8 115
2024 10 04 11  02 33 30.022   -32 40 39.28  1.2465 2.0731 134.4 22.3 33.6 115
2024 10 04 12  02 33 27.426   -32 40 59.19  1.2466 2.0732 134.4 22.3 34.3 115
2024 10 04 13  02 33 24.826   -32 41 19.06  1.2467 2.0734 134.4 22.3 35.1 115
2024 10 04 14  02 33 22.225   -32 41 38.87  1.2469 2.0736 134.4 22.3 35.9 115
2024 10 04 15  02 33 19.620   -32 41 58.64  1.2470 2.0737 134.4 22.3 36.7 115
2024 10 04 16  02 33 17.013   -32 42 18.35  1.2471 2.0739 134.4 22.3 37.5 115
2024 10 04 17  02 33 14.403   -32 42 38.02  1.2472 2.0740 134.4 22.3 38.3 115
2024 10 04 18  02 33 11.791   -32 42 57.65  1.2473 2.0742 134.4 22.3 39.1 115
2024 10 04 19  02 33 09.176   -32 43 17.22  1.2474 2.0743 134.4 22.3 40.0 114
2024 10 04 20  02 33 06.558   -32 43 36.75  1.2475 2.0745 134.4 22.3 40.8 114
2024 10 04 21  02 33 03.937   -32 43 56.22  1.2476 2.0747 134.4 22.3 41.7 114
2024 10 04 22  02 33 01.315   -32 44 15.65  1.2477 2.0748 134.5 22.3 42.5 114
2024 10 04 23  02 32 58.689   -32 44 35.03  1.2478 2.0750 134.5 22.3 43.4 114